Flag for United Kingdom Weather past 2 weeks in Norwich, England, United Kingdom

Now
70 °F

Sunny.


Feels Like: 70 °F
Forecast: 64 / 78 °F
Wind: 10 mph from East

Location: Norwich Weather Centre

Current Time: Jul 1, 2015 at 8:42:23 AM

Latest Report: Jul 1, 2015 at 7:50 AM


Visibility: 10 mi

Pressure: 29.98 "Hg

Humidity: 64%

Dew point: 57 °F

Location of NorwichLocation

Historic Weather in Norwich — Graph

°F

Norwich temperature yesterday

Maximum temperature yesterday: 79 °F (at 3:20 PM)
Minimum temperature yesterday: 54 °F (at 1:50 AM)
Average temperature yesterday: 66 °F

Past Weeks' High & Low Weather Summary

 TemperatureHumidityPressure
High79 °F (Jun 30, 3:20 PM)100% (Jun 20, 3:20 AM)30.30 "Hg (Jun 20, 3:20 AM)
Low45 °F (Jun 24, 1:50 AM)34% (Jun 30, 2:50 PM)29.74 "Hg (Jun 22, 11:20 AM)
Average61 °F74%30.07 "Hg
* Reported Jun 16 6:20 AM — Jul 1 6:50 AM, Norwich, Weather by CustomWeather, © 2015

Note: Actual official high and low records may vary slightly from our data, if they occured in-between our weather recording intervals... More about our weather records

Advertising

Norwich weather history for previous 24 hours

 ConditionsComfort  
Time TempWeatherWind HumidityBarometerVisibility
6:50 AM
Wed, Jul 1
68 °FPassing clouds.7 mph64%30.01 "HgN/A
6:20 AM68 °FSunny.13 mph69%29.98 "Hg10 mi
5:50 AM66 °FMild.8 mph68%30.01 "HgN/A
5:20 AM66 °FMild.8 mph68%30.01 "HgN/A
4:50 AM66 °FMild.10 mph68%30.01 "HgN/A
4:20 AM64 °FMild.8 mph73%30.01 "HgN/A
3:50 AM63 °FMild.7 mph77%30.01 "HgN/A
3:20 AM63 °FMild.5 mph77%30.01 "HgN/A
2:50 AM63 °FMild.9 mph83%30.01 "HgN/A
2:20 AM61 °FCool.10 mph88%30.01 "HgN/A
1:50 AM59 °FHaze.3 mph88%30.01 "Hg3 mi
1:20 AM59 °FHaze.2 mph88%30.04 "Hg3 mi
12:50 AM59 °FHaze.2 mph88%30.04 "Hg3 mi
12:20 AM59 °FCool.2 mph88%30.07 "Hg4 mi
11:50 PM
Tue, Jun 30
59 °FCool.3 mph88%30.07 "Hg4 mi
11:20 PM57 °FCool.5 mph88%30.07 "Hg4 mi
10:50 PM59 °FCool.2 mph82%30.07 "Hg4 mi
10:20 PM61 °FCool.5 mph83%30.07 "Hg4 mi
9:50 PM61 °FSunny.6 mph77%30.07 "Hg10 mi
9:20 PM63 °FSunny.8 mph73%30.07 "Hg10 mi
8:50 PM66 °FSunny.9 mph64%30.07 "Hg10 mi
8:20 PM66 °FPassing clouds.10 mph64%30.07 "HgN/A
7:50 PM68 °FSunny.13 mph60%30.07 "Hg10 mi
7:20 PM70 °FPassing clouds.12 mph53%30.07 "HgN/A
6:50 PM72 °FSunny.12 mph41%30.07 "Hg10 mi
5:50 PM73 °FPassing clouds.13 mph44%30.07 "HgN/A
5:20 PM75 °FSunny.14 mph39%30.07 "Hg10 mi
4:50 PM75 °FPassing clouds.15 mph39%30.09 "HgN/A
3:50 PM77 °FSunny.13 mph39%30.09 "Hg10 mi
3:20 PM79 °FPassing clouds.14 mph37%30.09 "HgN/A
2:50 PM77 °FPassing clouds.13 mph34%30.09 "HgN/A
1:50 PM77 °FPassing clouds.10 mph36%30.12 "HgN/A
1:20 PM77 °FPassing clouds.13 mph36%30.12 "HgN/A
12:50 PM77 °FPassing clouds.13 mph36%30.12 "HgN/A
12:20 PM77 °FPassing clouds.12 mph36%30.12 "HgN/A
11:50 AM77 °FPassing clouds.10 mph39%30.12 "HgN/A
11:20 AM75 °FPassing clouds.10 mph41%30.15 "HgN/A
10:50 AM75 °FPassing clouds.10 mph41%30.15 "HgN/A
10:20 AM73 °FPassing clouds.9 mph44%30.15 "HgN/A
9:50 AM72 °FPassing clouds.10 mph47%30.15 "HgN/A
9:20 AM72 °FPassing clouds.9 mph57%30.15 "HgN/A
8:50 AM70 °FPassing clouds.9 mph60%30.15 "HgN/A
8:20 AM68 °FPassing clouds.8 mph69%30.15 "HgN/A
Weather by CustomWeather, © 2015

See weather overviewHow to use our weather pages